Location: Unspecified
(0.0000°N, 0.0000°E)
Time: 18:49:24
(UTC+00:00)

Vanguard 3 - Pass Details

Date: 28 November 2019
Orbit: 508 x 3263 km, 33.3° (Epoch: 06 December)

Event Time Altitude Azimuth Distance (km) Brightness Sun altitude
Rises 12:06:00 0° 295° (WNW) 5,876 11.5 68.2°
Reaches altitude 10° 12:11:37 10° 312° (NW) 5,335 11.3 67.9°
Maximum altitude 12:22:08 19° 352° (N) 5,204 11.3 67.1°
Drops below altitude 10° 12:34:18 10° 30° (NNE) 6,195 11.5 65.9°
Sets 12:41:52 0° 47° (NE) 7,125 11.7 64.9°
